Regional Weather Roundup
Issued by NWS

Home | Current Version | Previous Version | Graphics & Text | Print | Product List | Glossary Off
Versions: 1 2 3 4 5 6 7 8 9 10 11 12 13 14 15 16 17 18 19 20 21 22 23 24 25 26 27 28 29 30 31 32 33 34 35 36 37 38 39 40 41 42 43 44 45 46 47 48 49 50

000
ASUS43 KTOP 021759
RWRKS

WEATHER ROUNDUP FOR KANSAS
NATIONAL WEATHER SERVICE GOODLAND KS
100 PM CDT THU JUL 02 2015

NOTE:  "FAIR" INDICATES FEW OR NO CLOUDS BELOW 12,000 FEET WITH NO
SIGNIFICANT WEATHER AND/OR OBSTRUCTIONS TO VISIBILITY.

KSZ001>006-013>018-027>032-041>047-021900-
NORTHWEST KANSAS

CITY           SKY/WX    TMP DP  RH WIND       PRES   REMARKS
GOODLAND       MOSUNNY   78  58  49 NW9G16    30.08F
6HR MIN TEMP:  61; 6HR MAX TEMP:  78; 6HR PCP: TRACE;

HAYS           CLOUDY    75  63  64 SW5       29.97F
HILL CITY      LGT RAIN  78  65  63 SE3       30.00S
6HR MIN TEMP:  65; 6HR MAX TEMP:  80; 6HR PCP:  0.11;

RUSSELL        RAIN      73  67  81 N6        29.97R
6HR MIN TEMP:  64; 6HR MAX TEMP:  74; 6HR PCP:  0.61;

$$

KSZ061>065-074>080-084>089-021900-
SOUTHWEST KANSAS

CITY           SKY/WX    TMP DP  RH WIND       PRES   REMARKS
DODGE CITY     CLOUDY    76  68  76 NE13      30.02R
6HR MIN TEMP:  68; 6HR MAX TEMP:  79; 6HR PCP: TRACE;

ELKHART          N/A     86  59  40 N10         N/A
GARDEN CITY    CLOUDY    78  66  66 NE13      30.03S
6HR MIN TEMP:  69; 6HR MAX TEMP:  80; 6HR PCP:  0.15;

GREAT BEND     CLOUDY    77  66  69 S9        29.97S
LIBERAL        MOSUNNY   84  63  48 NE10      30.04S
$$

KSZ066>073-081>083-090>101-021900-
SOUTHEAST KANSAS

CITY           SKY/WX    TMP DP  RH WIND       PRES   REMARKS
CHANUTE        CLOUDY    77  70  79 N9        29.92R
6HR MIN TEMP:  72; 6HR MAX TEMP:  82;

COFFEYVILLE    CLOUDY    87  74  64 N10       29.89R HX  95
6HR MIN TEMP:  76; 6HR MAX TEMP:  88;

HUTCHINSON     LGT RAIN  74  71  91 E7        29.94F FOG
6HR MIN TEMP:  74; 6HR MAX TEMP:  79;

MEDICINE LODGE   N/A     83  71  67 NE16G24   29.95R
NEWTON         CLOUDY    73  66  78 S6        29.98F
PARSONS        CLOUDY    82  73  74 NE8       29.92R
6HR MIN TEMP:  73; 6HR MAX TEMP:  85;

WICHITA INTL   RAIN      78  72  81 NW9       29.97R
6HR MIN TEMP:  76; 6HR MAX TEMP:  81; 6HR PCP:  0.01;

WICHITA JABRA  LGT RAIN  74  71  91 N9        29.96R
6HR MIN TEMP:  73; 6HR MAX TEMP:  78; 6HR PCP:  0.02;

WINFIELD       CLOUDY    82  71  69 N14       29.93R
6HR MIN TEMP:  74; 6HR MAX TEMP:  86;

$$

KSZ007>012-019>026-033>040-048>060-102>105-021900-
NORTHEAST KANSAS

CITY           SKY/WX    TMP DP  RH WIND       PRES   REMARKS
CONCORDIA      LGT RAIN  75  71  87 CALM      29.95F
6HR MIN TEMP:  70; 6HR MAX TEMP:  75; 6HR PCP:  0.12;

EMPORIA        CLOUDY    76  69  79 CALM      29.94F
6HR MIN TEMP:  70; 6HR MAX TEMP:  76;

LAWRENCE       CLOUDY    74  68  81 CALM      29.94R
6HR MIN TEMP:  73; 6HR MAX TEMP:  75;

MANHATTAN      LGT RAIN  75  71  87 E3        29.93F
6HR MIN TEMP:  74; 6HR MAX TEMP:  77; 6HR PCP:  0.07;

OLATHE IND     CLOUDY    74  68  81 E5        29.94S HAZE
6HR MIN TEMP:  72; 6HR MAX TEMP:  74;

OLATHE EXE     CLOUDY    73  68  84 VRB3      29.93S
6HR MIN TEMP:  70; 6HR MAX TEMP:  73; 6HR PCP: TRACE;

SALINA         LGT RAIN  76  71  85 CALM      29.97R
6HR MIN TEMP:  75; 6HR MAX TEMP:  79; 6HR PCP:  0.07;

TOPEKA BILLARD LGT RAIN  74  69  85 E14       29.90F
6HR MIN TEMP:  73; 6HR MAX TEMP:  76; 6HR PCP: TRACE;

TOPEKA FORBES  CLOUDY    76  68  76 E6        29.92F
6HR MIN TEMP:  74; 6HR MAX TEMP:  77;

$$


USA.gov is the U.S. government's official web portal to all federal, state and local government web resources and services.